Date String (YYYY-MM-DD hh:mm:ss) UTC,Instrument flags,absolute air pressure of the measurement (hPa),sample flow rate (lpm),inlet stack bypass flow (lpm),air temperature of the measurement (°C),ambient temperature measured by the external sensor (°C),aerosol sample conditioner tube jacket temperature (°C),OPC LED temperature (°C),internal box temperature (°C),relative humidity of the measurement (%),span deviation,mass concentration of particles derived from Lorenz-Mie calculation of OPC scattering (μg/m³),mass concentration of particles derived from Lorenz-Mie calculation of OPC scattering (μg/m³),mass concentration of particles derived from Lorenz-Mie calculation of OPC scattering (μg/m³)
DateTimeUTC,F1_M11,P_M11,Q1_M11,Q2_M11,T1_M11,T2_M11,T3_M11,T4_M11,T5_M11,U1_M11,ZSPAN_M11,X2_M11,X0_M11,X1_M11
2024-03-06 15:00:00,SystemResetWarning,0822.0,4.99,000.00,018.8,018.1,000.0,027.2,020.4,19.5,0000.0,0005.78,0015.38,0004.71
2024-03-06 15:01:00,SystemResetWarning,0822.1,5.00,000.00,018.8,018.1,000.0,027.2,020.4,19.8,0000.0,0005.79,0016.09,0004.71
2024-03-06 15:02:00,SystemResetWarning,0822.1,5.00,000.00,018.8,018.1,000.0,027.1,020.4,19.6,0000.0,0005.81,0015.75,0004.69
2024-03-06 15:03:00,SystemResetWarning,0822.1,5.01,000.00,018.7,018.1,000.0,027.1,020.4,19.6,0000.0,0005.82,0015.60,0004.68
2024-03-06 15:04:00,SystemResetWarning,0822.1,5.00,000.00,018.7,018.1,000.0,027.1,020.4,19.3,0000.0,0005.82,0016.21,0004.65
2024-03-06 15:05:00,SystemResetWarning,0822.1,5.00,000.00,018.7,018.1,000.0,027.1,020.4,18.8,0000.0,0005.81,0016.86,0004.64
2024-03-06 15:06:00,SystemResetWarning,0822.0,5.00,000.00,018.7,018.1,000.0,027.1,020.4,18.9,0000.0,0005.75,0016.42,0004.62
2024-03-06 15:07:00,SystemResetWarning,0822.0,4.98,000.00,018.7,018.1,000.0,027.1,020.4,19.3,0000.0,0005.65,0016.02,0004.53
2024-03-06 15:08:00,SystemResetWarning,0822.1,5.00,000.00,018.7,018.1,000.0,027.1,020.4,19.8,0000.0,0005.54,0015.22,0004.42
2024-03-06 15:09:00,SystemResetWarning,0822.2,5.01,000.00,018.7,018.1,000.0,027.1,020.4,20.0,0000.0,0005.29,0014.38,0004.25
2024-03-06 15:10:00,SystemResetWarning,0822.1,5.01,000.00,018.7,018.1,000.0,027.1,020.4,20.2,0000.0,0005.12,0014.80,0004.12
2024-03-06 15:11:00,SystemResetWarning,0822.0,5.00,000.00,018.7,018.1,000.0,027.1,020.3,20.2,0000.0,0005.05,0014.74,0004.08
2024-03-06 15:12:00,SystemResetWarning,0822.0,4.99,000.00,018.7,018.1,000.0,027.1,020.3,20.0,0000.0,0005.01,0014.30,0004.06
2024-03-06 15:13:00,SystemResetWarning,0822.1,4.99,000.00,018.7,018.1,000.0,027.1,020.3,20.0,0000.0,0005.00,0014.03,0004.05
2024-03-06 15:14:00,SystemResetWarning,0822.1,4.99,000.00,018.7,018.1,000.0,027.1,020.3,19.9,0000.0,0005.04,0014.49,0004.05
2024-03-06 15:15:00,SystemResetWarning,0822.0,5.01,000.00,018.7,018.1,000.0,027.1,020.3,19.5,0000.0,0005.03,0014.21,0004.05
2024-03-06 15:16:00,SystemResetWarning,0821.9,5.01,000.00,018.7,018.1,000.0,027.1,020.3,19.3,0000.0,0005.00,0013.22,0004.06
2024-03-06 15:17:00,SystemResetWarning,0821.8,5.00,000.00,018.7,018.1,000.0,027.1,020.3,19.5,0000.0,0005.05,0012.82,0004.06
2024-03-06 15:18:00,SystemResetWarning,0822.0,5.00,000.00,018.7,018.1,000.0,027.1,020.3,19.9,0000.0,0005.17,0012.41,0004.13
2024-03-06 15:19:00,SystemResetWarning,0822.0,4.99,000.00,018.7,018.1,000.0,027.1,020.4,20.0,0000.0,0005.35,0012.62,0004.28
2024-03-06 15:20:00,SystemResetWarning,0822.0,4.99,000.00,018.7,018.1,000.0,027.0,020.4,20.0,0000.0,0005.54,0013.38,0004.44
2024-03-06 15:21:00,SystemResetWarning,0822.0,5.00,000.00,018.7,018.1,000.0,027.0,020.4,19.6,0000.0,0005.64,0012.96,0004.53
2024-03-06 15:22:00,SystemResetWarning,0822.0,5.01,000.00,018.7,018.1,000.0,027.0,020.4,19.1,0000.0,0005.65,0012.94,0004.52
2024-03-06 15:23:00,SystemResetWarning,0821.9,5.01,000.00,018.7,018.1,000.0,027.1,020.4,19.2,0000.0,0005.64,0013.89,0004.48
2024-03-06 15:24:00,SystemResetWarning,0821.7,4.99,000.00,018.7,018.2,000.0,027.1,020.4,19.1,0000.0,0005.62,0014.98,0004.46
2024-03-06 15:25:00,SystemResetWarning,0821.7,5.00,000.00,018.7,018.2,000.0,027.0,020.4,19.5,0000.0,0005.57,0015.16,0004.47
2024-03-06 15:26:00,SystemResetWarning,0821.7,5.01,000.00,018.7,018.2,000.0,027.0,020.4,20.0,0000.0,0005.61,0015.78,0004.50
2024-03-06 15:27:00,SystemResetWarning,0821.7,5.01,000.00,018.8,018.2,000.0,027.0,020.4,20.0,0000.0,0005.62,0015.95,0004.52
2024-03-06 15:28:00,SystemResetWarning,0821.9,5.00,000.00,018.7,018.2,000.0,027.0,020.4,20.2,0000.0,0005.56,0015.93,0004.54
2024-03-06 15:29:00,SystemResetWarning,0822.2,4.99,000.00,018.8,018.2,000.0,027.0,020.4,20.2,0000.0,0005.56,0017.07,0004.54
2024-03-06 15:30:00,SystemResetWarning,0822.1,4.99,000.00,018.8,018.2,000.0,027.0,020.4,20.1,0000.0,0005.60,0018.04,0004.56
2024-03-06 15:31:00,SystemResetWarning,0822.0,5.00,000.00,018.8,018.2,000.0,027.0,020.4,19.6,0000.0,0005.67,0017.99,0004.58
2024-03-06 15:32:00,SystemResetWarning,0822.0,5.00,000.00,018.8,018.2,000.0,027.0,020.4,19.8,0000.0,0005.74,0017.43,0004.61
2024-03-06 15:33:00,SystemResetWarning,0822.0,5.00,000.00,018.8,018.2,000.0,027.0,020.4,19.3,0000.0,0005.78,0017.99,0004.66
2024-03-06 15:34:00,SystemResetWarning,0821.9,5.00,000.00,018.8,018.2,000.0,027.0,020.4,19.2,0000.0,0005.82,0017.45,0004.72
2024-03-06 15:35:00,SystemResetWarning,0821.9,5.00,000.00,018.8,018.2,000.0,027.0,020.4,19.4,0000.0,0005.83,0016.99,0004.76
2024-03-06 15:36:00,SystemResetWarning,0821.6,5.00,000.00,018.8,018.2,000.0,027.0,020.4,19.7,-000.1,0005.90,0017.50,0004.76
2024-03-06 15:37:00,SystemResetWarning,0821.6,5.01,000.00,018.8,018.2,000.0,027.1,020.4,19.7,0000.0,0005.93,0017.33,0004.76
2024-03-06 15:38:00,SystemResetWarning,0821.7,5.00,000.00,018.8,018.2,000.0,027.1,020.4,19.8,0000.0,0005.93,0016.94,0004.76
2024-03-06 15:39:00,SystemResetWarning,0821.8,5.00,000.00,018.8,018.2,000.0,027.1,020.4,19.9,0000.0,0005.97,0016.80,0004.76
2024-03-06 15:40:00,SystemResetWarning,0821.7,5.00,000.00,018.8,018.2,000.0,027.1,020.4,19.9,0000.0,0006.05,0015.95,0004.78
2024-03-06 15:41:00,SystemResetWarning,0821.8,5.00,000.00,018.8,018.3,000.0,027.1,020.4,20.0,0000.0,0006.06,0015.14,0004.77
2024-03-06 15:42:00,SystemResetWarning,0821.7,5.00,000.00,018.8,018.3,000.0,027.1,020.4,19.8,0000.0,0006.06,0015.25,0004.77
2024-03-06 15:43:00,SystemResetWarning,0821.7,4.98,000.00,018.8,018.3,000.0,027.1,020.4,20.1,0000.4,0006.14,0015.68,0004.82
2024-03-06 15:44:00,SystemResetWarning,0821.7,4.99,000.00,018.8,018.3,000.0,027.1,020.4,19.7,0000.4,0006.26,0015.56,0004.88
2024-03-06 15:45:00,SystemResetWarning,0821.6,5.00,000.00,018.8,018.3,000.0,027.1,020.4,19.9,0000.0,0006.29,0015.28,0004.93
2024-03-06 15:46:00,SystemResetWarning,0821.7,5.00,000.00,018.8,018.3,000.0,027.1,020.5,20.1,0000.0,0006.39,0016.28,0004.96
2024-03-06 15:47:00,SystemResetWarning,0821.9,5.00,000.00,018.8,018.3,000.0,027.1,020.5,20.1,0000.0,0006.40,0015.26,0004.98
2024-03-06 15:48:00,SystemResetWarning,0821.8,5.00,000.00,018.9,018.3,000.0,027.1,020.5,19.9,0000.0,0006.43,0014.72,0005.00
2024-03-06 15:49:00,SystemResetWarning,0821.6,5.01,000.00,018.9,018.4,000.0,027.1,020.5,19.6,0000.0,0006.48,0014.79,0005.02
2024-03-06 15:50:00,SystemResetWarning,0821.7,5.00,000.00,018.9,018.4,000.0,027.1,020.5,20.0,0000.0,0006.52,0014.98,0005.04
2024-03-06 15:51:00,SystemResetWarning,0821.7,4.99,000.00,018.9,018.4,000.0,027.1,020.5,19.9,0000.0,0006.50,0015.07,0005.06
2024-03-06 15:52:00,SystemResetWarning,0821.6,5.00,000.00,018.9,018.4,000.0,027.1,020.6,19.9,0000.0,0006.52,0015.38,0005.09
2024-03-06 15:53:00,SystemResetWarning,0821.7,5.00,000.00,018.9,018.4,000.0,027.1,020.6,20.1,0000.0,0006.56,0016.24,0005.11
2024-03-06 15:54:00,SystemResetWarning,0821.7,5.00,000.00,018.9,018.4,000.0,027.1,020.6,19.9,0000.0,0006.51,0015.69,0005.09
2024-03-06 15:55:00,SystemResetWarning,0821.7,5.00,000.00,018.9,018.4,000.0,027.2,020.6,20.1,0000.0,0006.42,0016.08,0005.05
2024-03-06 15:56:00,SystemResetWarning,0821.7,5.00,000.00,018.9,018.4,000.0,027.2,020.6,20.0,0000.0,0006.35,0015.90,0005.02
2024-03-06 15:57:00,SystemResetWarning,0821.8,5.00,000.00,019.0,018.4,000.0,027.2,020.6,20.1,0000.0,0006.30,0014.43,0005.03
2024-03-06 15:58:00,SystemResetWarning,0821.7,5.01,000.00,019.0,018.4,000.0,027.2,020.6,20.2,0000.0,0006.28,0015.16,0005.03
2024-03-06 15:59:00,SystemResetWarning,0821.6,5.01,000.00,019.0,018.5,000.0,027.2,020.6,19.9,0000.0,0006.24,0016.05,0005.01
